603  
ASUS42 KCAE 071110  
RWRCAE  
REGIONAL WEATHER ROUNDUP  
NATIONAL WEATHER SERVICE COLUMBIA SC  
600 AM EST TUE FEB 07 2023  
 
NOTE: "FAIR" INDICATES FEW OR NO CLOUDS BELOW 12,000 FEET WITH NO  
SIGNIFICANT WEATHER AND/OR S TO VISIBILITY
.  
 
NOT ALL STATIONS ARE QUALITY CONTROLLED BY THE NATIONAL  
WEATHER SERVICE. USE DATA WITH CAUTION...ESPECIALLY  
DEWPOINT OBSERVATIONS.  
 
SCZ001>059-115-116-135>137-GAZ040-063>065-077-071200-   
..UPSTATE SOUTH CAROLINA
 
 
 
CITY SKY/WX TMP DP RH WIND PRES REMARKS
 
ANDERSON CLEAR 34 31 88 CALM 30.30R  
LIBERTY CLEAR 30 29 97 CALM 30.28S  
SPARTANBURG PTCLDY 34 32 93 CALM 30.30R  
GREENVILLE CLEAR 42 32 67 CALM 30.30R  
GREENWOOD CLEAR 32 30 92 CALM 30.31R  
GREER PTCLDY 35 30 82 CALM 30.30R  
ROCK HILL PTCLDY 33 30 88 CALM 30.31R  
LAURENS CLEAR 34 32 93 CALM 30.31R  
 
   
..CENTRAL SOUTH CAROLINA
 
 
 
CITY SKY/WX TMP DP RH WIND PRES REMARKS
 
COLUMBIA APT CLEAR 32 30 92 CALM 30.31R  
COLUMBIA OWENS CLEAR 35 32 88 CALM 30.33R  
MCENTIRE ANGB CLEAR 32 32 99 CALM 30.30R  
ORANGEBURG CLEAR 36 34 92 CALM 30.32R  
SUMTER SHAW CLEAR 35 30 84 CALM 30.30R  
AIKEN FAIR 33 30 90 CALM 30.31R  
BARNWELL FAIR 32 32 100 CALM 30.32R  
MANNING FAIR 34 32 93 CALM 30.33R  
LANCASTER PTCLDY 32 30 93 CALM 30.31R  
WINNSBORO CLEAR 43 32 65 S3 30.31R  
 
   
..EASTERN AND COASTAL SOUTH CAROLINA
 
 
 
CITY SKY/WX TMP DP RH WIND PRES REMARKS
 
MYRTLE BEACH CLEAR 38 38 100 N5 30.34R WCI 34  
N MYRTLE BCH CLEAR 34 33 96 CALM 30.33R  
CONWAY FAIR 32 32 100 CALM 30.34R  
MARION FAIR 32 30 93 CALM 30.34R  
HARTSVILLE MOCLDY 39 36 87 CALM 30.32R  
FLORENCE PTCLDY 35 33 92 CALM 30.33R  
DARLINGTON CLEAR 31 31 100 CALM 30.33R  
CHARLESTON APT PTCLDY 39 37 92 CALM 30.33R  
MOUNT PLEASANT FAIR 39 39 100 CALM 30.32R  
WALTERBORO CLEAR 32 32 100 CALM 30.34R  
BEAUFORT PTCLDY 40 37 89 CALM 30.33R  
HILTON HEAD CLEAR 41 41 100 CALM 30.33R  
 
   
..EASTERN GEORGIA
 
 
 
CITY SKY/WX TMP DP RH WIND PRES REMARKS
 
AUGUSTA BUSH F PTCLDY 30 30 100 CALM 30.32R  
AUGUSTA DANIEL PTCLDY 44 37 76 CALM 30.31R  
THOMSON PTCLDY 32 31 97 CALM 30.30R  
CLAXTON FAIR 36 34 94 CALM 30.31R  
SYLVANIA PTCLDY 35 34 96 MISG 30.32R  
STATESBORO PTCLDY 35 34 95 CALM 30.31R  
SAVANNAH PTCLDY 40 37 89 CALM 30.32R  
 
   
..SOUTHERN NORTH CAROLINA
 
 
 
CITY SKY/WX TMP DP RH WIND PRES REMARKS
 
CHARLOTTE PTCLDY 36 31 82 CALM 30.30R  
MONROE PTCLDY 35 30 82 CALM 30.30R  
WADESBORO CLEAR 31 29 90 CALM 30.33R  
ROCKINGHAM PTCLDY 35 30 82 NE6 30.33R WCI 29  
RUTHERFORDTON PTCLDY 34 28 80 CALM 30.31R  
ASHEVILLE PTCLDY 29 25 85 CALM 30.28R  
 

 
 
 
CLICK HERE TO GO TO PREVIOUS BULLETINS.

The Nexlab SC Page
The Nexlab GA Page Main Text Page